Showing default

KUIPER-00127, 65956

Orbit data source: Space-Track

KUIPER-00127, 65956 is a payload satellite owned by Kuiper Systems (US) in LEO that was launched on Tue, 14 Oct 2025 UTC via an FALCON 9 launch vehicle from the Air Force Eastern Test Range (AFETR). Payload-class satellites include a variety of spacecraft equipped with specific instruments for various scientific and technological missions. These include communications satellites like Starlink; space stations such as the ISS; scientific satellites like the Hubble; Earth observation satellites from companies like Planet Labs, Umbra, and HawkEye 360; GPS; miniature CubeSats for education and research; and military/defense satellites.

Loading next visibility...
Identifier
65956, 2025-228K
Orbit
LEO
Country
Flag of USUS
Related business
Manufacturer
Kuiper Systems
Mission
Operational Commercial Communications
Bus & Motor
KUIPER, Unknown motor
Mass
~490 kg wet, ~490 kg dry
Launch date (UTC)
2025-10-14 (8 months ago)
Launch vehicle
FALCON 9
Launch site
Air Force Eastern Test Range (AFETR)
Object type
Payload
Rocket body
Debris
Shape & HBR
Box + 2 Pan, 3.4 m
Radar Cross Section
2.326 m², Large (>1 m²)

Expand to show TLE details & history
Last TLE update: 10 hours ago

TLE from 10 hours ago
0 KUIPER-00127
1 65956U 25228K   26171.43320373  .00002425  00000-0  34696-3 0  9996
2 65956  51.8999 258.7299 0000487  89.2779 270.8239 14.79933341 38553
Epoch: 2026-06-20T10:23Z
TLE epoch observation values (Epoch: 2026-06-20T10:23:48.802Z)
Latitude
-0.00002°
Longitude
-165.87135°
Altitude
630.276 km
Speed
7.545 km/s
True Right ascension
17h 14m 55s
True Declination
0° 00' 00"
Sunlit
Object was in full shadow at epoch
Visualization orbit readout
Latitude
Unknown
Longitude
Unknown
Altitude
Unknown
Speed
Unknown
Apparent Right ascension
Unknown
Apparent Declination
Unknown
Sunlit
N/A
Visualization observer readout
Local Sidereal Time
07:16:26
Azimuth
Unknown
Elevation
Unknown
Doppler factor
Unknown
Orbital elements
Apogee altitude
630.327 km
Perigee altitude
629.644 km
Semi-major axis
7,008.123 km
Eccentricity
0.00005
Inclination
51.8999°
RAAN
258.7299°
Arg. of periapsis
89.2779°
True anomaly
270.81832°
Mean anomaly
270.8239°
Eccentric anomaly
270.82111°
Mean motion
3.69948 °/min
Orbital period
97.31 mins
BSTAR
0.00034696
Loading maneuver chart data...
Computing Atmospheric mass density...
Loading historical data...
Loading historical data...
Loading historical data...
Loading historical data...
Loading historical data...
Loading historical data...
Loading historical data...

Documentation

Showing up to 5 results
|